Year,Month,Day,Hour,Minute,Value (Times are PST for temperature in C)
2019,06,13,00,00,23.70
2019,06,13,00,01,23.80
2019,06,13,00,02,23.80
2019,06,13,00,03,23.80
2019,06,13,00,04,23.80
2019,06,13,00,05,23.80
2019,06,13,00,06,23.80
2019,06,13,00,07,23.80
2019,06,13,00,08,23.70
2019,06,13,00,09,23.70
2019,06,13,00,10,23.70
2019,06,13,00,11,23.60
2019,06,13,00,12,23.50
2019,06,13,00,13,23.50
2019,06,13,00,14,23.40
2019,06,13,00,15,23.40
2019,06,13,00,16,23.40
2019,06,13,00,17,23.30
2019,06,13,00,18,23.30
2019,06,13,00,19,23.30
2019,06,13,00,20,23.40
2019,06,13,00,21,23.40
2019,06,13,00,22,23.40
2019,06,13,00,23,23.50
2019,06,13,00,24,23.60
2019,06,13,00,25,23.60
2019,06,13,00,26,23.70
2019,06,13,00,27,23.70
2019,06,13,00,28,23.80
2019,06,13,00,29,23.80
2019,06,13,00,30,23.80
2019,06,13,00,31,23.80
2019,06,13,00,32,23.80
2019,06,13,00,33,23.90
2019,06,13,00,34,23.90
2019,06,13,00,35,23.90
2019,06,13,00,36,23.90
2019,06,13,00,37,23.90
2019,06,13,00,38,23.90
2019,06,13,00,39,23.90
2019,06,13,00,40,23.90
2019,06,13,00,41,23.80
2019,06,13,00,42,23.80
2019,06,13,00,43,23.80
2019,06,13,00,44,23.80
2019,06,13,00,45,23.80
2019,06,13,00,46,23.80
2019,06,13,00,47,23.80
2019,06,13,00,48,23.80
2019,06,13,00,49,23.80
2019,06,13,00,50,23.80
2019,06,13,00,51,23.80
2019,06,13,00,52,23.80
2019,06,13,00,53,23.80
2019,06,13,00,54,23.80
2019,06,13,00,55,23.80
2019,06,13,00,56,23.80
2019,06,13,00,57,23.80
2019,06,13,00,58,23.80
2019,06,13,00,59,23.80
2019,06,13,01,00,23.80
2019,06,13,01,01,23.80
2019,06,13,01,02,23.80
2019,06,13,01,03,23.80
2019,06,13,01,04,23.80
2019,06,13,01,05,23.80
2019,06,13,01,06,23.80
2019,06,13,01,07,23.70
2019,06,13,01,08,23.70
2019,06,13,01,09,23.70
2019,06,13,01,10,23.70
2019,06,13,01,11,23.70
2019,06,13,01,12,23.70
2019,06,13,01,13,23.60
2019,06,13,01,14,23.60
2019,06,13,01,15,23.60
2019,06,13,01,16,23.60
2019,06,13,01,17,23.50
2019,06,13,01,18,23.50
2019,06,13,01,19,23.50
2019,06,13,01,20,23.50
2019,06,13,01,21,23.40
2019,06,13,01,22,23.40
2019,06,13,01,23,23.40
2019,06,13,01,24,23.40
2019,06,13,01,25,23.40
2019,06,13,01,26,23.40
2019,06,13,01,27,23.30
2019,06,13,01,28,23.30
2019,06,13,01,29,23.30
2019,06,13,01,30,23.20
2019,06,13,01,31,23.20
2019,06,13,01,32,23.10
2019,06,13,01,33,23.10
2019,06,13,01,34,23.10
2019,06,13,01,35,23.10
2019,06,13,01,36,23.10
2019,06,13,01,37,23.10
2019,06,13,01,38,23.10
2019,06,13,01,39,23.10
2019,06,13,01,40,23.10
2019,06,13,01,41,23.10
2019,06,13,01,42,23.10
2019,06,13,01,43,23.10
2019,06,13,01,44,23.10
2019,06,13,01,45,23.20
2019,06,13,01,46,23.20
2019,06,13,01,47,23.30
2019,06,13,01,48,23.30
2019,06,13,01,49,23.30
2019,06,13,01,50,23.30
2019,06,13,01,51,23.30
2019,06,13,01,52,23.40
2019,06,13,01,53,23.40
2019,06,13,01,54,23.40
2019,06,13,01,55,23.40
2019,06,13,01,56,23.40
2019,06,13,01,57,23.40
2019,06,13,01,58,23.40
2019,06,13,01,59,23.40
2019,06,13,02,00,23.40
2019,06,13,02,01,23.40
2019,06,13,02,02,23.30
2019,06,13,02,03,23.30
2019,06,13,02,04,23.30
2019,06,13,02,05,23.20
2019,06,13,02,06,23.20
2019,06,13,02,07,23.20
2019,06,13,02,08,23.20
2019,06,13,02,09,23.20
2019,06,13,02,10,23.20
2019,06,13,02,11,23.20
2019,06,13,02,12,23.20
2019,06,13,02,13,23.20
2019,06,13,02,14,23.10
2019,06,13,02,15,23.10
2019,06,13,02,16,23.10
2019,06,13,02,17,23.10
2019,06,13,02,18,23.10
2019,06,13,02,19,23.10
2019,06,13,02,20,23.00
2019,06,13,02,21,23.00
2019,06,13,02,22,23.00
2019,06,13,02,23,22.90
2019,06,13,02,24,22.90
2019,06,13,02,25,22.90
2019,06,13,02,26,22.90
2019,06,13,02,27,22.90
2019,06,13,02,28,22.90
2019,06,13,02,29,22.80
2019,06,13,02,30,22.80
2019,06,13,02,31,22.80
2019,06,13,02,32,22.90
2019,06,13,02,33,22.90
2019,06,13,02,34,22.90
2019,06,13,02,35,23.00
2019,06,13,02,36,23.00
2019,06,13,02,37,23.00
2019,06,13,02,38,23.10
2019,06,13,02,39,23.10
2019,06,13,02,40,23.10
2019,06,13,02,41,23.10
2019,06,13,02,42,23.10
2019,06,13,02,43,23.00
2019,06,13,02,44,22.90
2019,06,13,02,45,22.90
2019,06,13,02,46,22.80
2019,06,13,02,47,22.80
2019,06,13,02,48,22.70
2019,06,13,02,49,22.60
2019,06,13,02,50,22.50
2019,06,13,02,51,22.50
2019,06,13,02,52,22.40
2019,06,13,02,53,22.40
2019,06,13,02,54,22.30
2019,06,13,02,55,22.30
2019,06,13,02,56,22.30
2019,06,13,02,57,22.30
2019,06,13,02,58,22.20
2019,06,13,02,59,22.20
2019,06,13,03,00,22.30
2019,06,13,03,01,22.30
2019,06,13,03,02,22.30
2019,06,13,03,03,22.30
2019,06,13,03,04,22.30
2019,06,13,03,05,22.30
2019,06,13,03,06,22.30
2019,06,13,03,07,22.30
2019,06,13,03,08,22.20
2019,06,13,03,09,22.20
2019,06,13,03,10,22.10
2019,06,13,03,11,22.00
2019,06,13,03,12,22.00
2019,06,13,03,13,21.90
2019,06,13,03,14,21.80
2019,06,13,03,15,21.80
2019,06,13,03,16,21.80
2019,06,13,03,17,21.80
2019,06,13,03,18,21.80
2019,06,13,03,19,21.80
2019,06,13,03,20,21.90
2019,06,13,03,21,21.90
2019,06,13,03,22,22.00
2019,06,13,03,23,22.10
2019,06,13,03,24,22.10
2019,06,13,03,25,22.20
2019,06,13,03,26,22.20
2019,06,13,03,27,22.20
2019,06,13,03,28,22.20
2019,06,13,03,29,22.30
2019,06,13,03,30,22.30
2019,06,13,03,31,22.40
2019,06,13,03,32,22.40
2019,06,13,03,33,22.40
2019,06,13,03,34,22.50
2019,06,13,03,35,22.50
2019,06,13,03,36,22.50
2019,06,13,03,37,22.50
2019,06,13,03,38,22.50
2019,06,13,03,39,22.50
2019,06,13,03,40,22.50
2019,06,13,03,41,22.50
2019,06,13,03,42,22.50
2019,06,13,03,43,22.50
2019,06,13,03,44,22.50
2019,06,13,03,45,22.50
2019,06,13,03,46,22.50
2019,06,13,03,47,22.40
2019,06,13,03,48,22.40
2019,06,13,03,49,22.30
2019,06,13,03,50,22.30
2019,06,13,03,51,22.30
2019,06,13,03,52,22.20
2019,06,13,03,53,22.10
2019,06,13,03,54,22.00
2019,06,13,03,55,21.80
2019,06,13,03,56,21.60
2019,06,13,03,57,21.50
2019,06,13,03,58,21.40
2019,06,13,03,59,21.30
2019,06,13,04,00,21.20
2019,06,13,04,01,21.20
2019,06,13,04,02,21.20
2019,06,13,04,03,21.30
2019,06,13,04,04,21.30
2019,06,13,04,05,21.40
2019,06,13,04,06,21.50
2019,06,13,04,07,21.60
2019,06,13,04,08,21.60
2019,06,13,04,09,21.70
2019,06,13,04,10,21.70
2019,06,13,04,11,21.70
2019,06,13,04,12,21.80
2019,06,13,04,13,21.80
2019,06,13,04,14,21.80
2019,06,13,04,15,21.90
2019,06,13,04,16,22.00
2019,06,13,04,17,22.00
2019,06,13,04,18,22.10
2019,06,13,04,19,22.10
2019,06,13,04,20,22.10
2019,06,13,04,21,22.10
2019,06,13,04,22,22.20
2019,06,13,04,23,22.20
2019,06,13,04,24,22.20
2019,06,13,04,25,22.20
2019,06,13,04,26,22.30
2019,06,13,04,27,22.30
2019,06,13,04,28,22.30
2019,06,13,04,29,22.30
2019,06,13,04,30,22.20
2019,06,13,04,31,22.20
2019,06,13,04,32,22.20
2019,06,13,04,33,22.10
2019,06,13,04,34,22.10
2019,06,13,04,35,22.00
2019,06,13,04,36,21.80
2019,06,13,04,37,21.80
2019,06,13,04,38,21.70
2019,06,13,04,39,21.70
2019,06,13,04,40,21.60
2019,06,13,04,41,21.60
2019,06,13,04,42,21.60
2019,06,13,04,43,21.50
2019,06,13,04,44,21.50
2019,06,13,04,45,21.40
2019,06,13,04,46,21.40
2019,06,13,04,47,21.50
2019,06,13,04,48,21.50
2019,06,13,04,49,21.50
2019,06,13,04,50,21.50
2019,06,13,04,51,21.50
2019,06,13,04,52,21.60
2019,06,13,04,53,21.60
2019,06,13,04,54,21.60
2019,06,13,04,55,21.70
2019,06,13,04,56,21.70
2019,06,13,04,57,21.70
2019,06,13,04,58,21.70
2019,06,13,04,59,21.70
2019,06,13,05,00,21.70
2019,06,13,05,01,21.70
2019,06,13,05,02,21.80
2019,06,13,05,03,21.80
2019,06,13,05,04,21.80
2019,06,13,05,05,21.80
2019,06,13,05,06,21.80
2019,06,13,05,07,21.80
2019,06,13,05,08,21.80
2019,06,13,05,09,21.80
2019,06,13,05,10,21.80
2019,06,13,05,11,21.80
2019,06,13,05,12,21.80
2019,06,13,05,13,21.80
2019,06,13,05,14,21.80
2019,06,13,05,15,21.80
2019,06,13,05,16,21.80
2019,06,13,05,17,21.80
2019,06,13,05,18,21.80
2019,06,13,05,19,21.80
2019,06,13,05,20,21.80
2019,06,13,05,21,21.80
2019,06,13,05,22,21.80
2019,06,13,05,23,21.80
2019,06,13,05,24,21.80
2019,06,13,05,25,21.90
2019,06,13,05,26,21.90
2019,06,13,05,27,21.90
2019,06,13,05,28,21.90
2019,06,13,05,29,22.00
2019,06,13,05,30,22.00
2019,06,13,05,31,22.00
2019,06,13,05,32,22.00
2019,06,13,05,33,22.10
2019,06,13,05,34,22.10
2019,06,13,05,35,22.10
2019,06,13,05,36,22.10
2019,06,13,05,37,22.20
2019,06,13,05,38,22.20
2019,06,13,05,39,22.20
2019,06,13,05,40,22.20
2019,06,13,05,41,22.20
2019,06,13,05,42,22.20
2019,06,13,05,43,22.20
2019,06,13,05,44,22.30
2019,06,13,05,45,22.30
2019,06,13,05,46,22.30
2019,06,13,05,47,22.30
2019,06,13,05,48,22.30
2019,06,13,05,49,22.30
2019,06,13,05,50,22.30
2019,06,13,05,51,22.30
2019,06,13,05,52,22.40
2019,06,13,05,53,22.40
2019,06,13,05,54,22.40
2019,06,13,05,55,22.40
2019,06,13,05,56,22.40
2019,06,13,05,57,22.40
2019,06,13,05,58,22.40
2019,06,13,05,59,22.40
2019,06,13,06,00,22.40
2019,06,13,06,01,22.40
2019,06,13,06,02,22.40
2019,06,13,06,03,22.40
2019,06,13,06,04,22.40
2019,06,13,06,05,22.40
2019,06,13,06,06,22.40
2019,06,13,06,07,22.30
2019,06,13,06,08,22.30
2019,06,13,06,09,22.30
2019,06,13,06,10,22.30
2019,06,13,06,11,22.30
2019,06,13,06,12,22.30
2019,06,13,06,13,22.20
2019,06,13,06,14,22.20
2019,06,13,06,15,22.20
2019,06,13,06,16,22.20
2019,06,13,06,17,22.20
2019,06,13,06,18,22.20
2019,06,13,06,19,22.20
2019,06,13,06,20,22.20
2019,06,13,06,21,22.20
2019,06,13,06,22,22.20
2019,06,13,06,23,22.20
2019,06,13,06,24,22.20
2019,06,13,06,25,22.20
2019,06,13,06,26,22.20
2019,06,13,06,27,22.20
2019,06,13,06,28,22.20
2019,06,13,06,29,22.20
2019,06,13,06,30,22.20
2019,06,13,06,31,22.20
2019,06,13,06,32,22.20
2019,06,13,06,33,22.20
2019,06,13,06,34,22.20
2019,06,13,06,35,22.20
2019,06,13,06,36,22.20
2019,06,13,06,37,22.20
2019,06,13,06,38,22.30
2019,06,13,06,39,22.30
2019,06,13,06,40,22.30
2019,06,13,06,41,22.30
2019,06,13,06,42,22.40
2019,06,13,06,43,22.40
2019,06,13,06,44,22.40
2019,06,13,06,45,22.50
2019,06,13,06,46,22.50
2019,06,13,06,47,22.60
2019,06,13,06,48,22.60
2019,06,13,06,49,22.60
2019,06,13,06,50,22.60
2019,06,13,06,51,22.60
2019,06,13,06,52,22.60
2019,06,13,06,53,22.60
2019,06,13,06,54,22.60
2019,06,13,06,55,22.60
2019,06,13,06,56,22.60
2019,06,13,06,57,22.60
2019,06,13,06,58,22.60
2019,06,13,06,59,22.50
2019,06,13,07,00,22.50
2019,06,13,07,01,22.50
2019,06,13,07,02,22.50
2019,06,13,07,03,22.50
2019,06,13,07,04,22.40
2019,06,13,07,05,22.50
2019,06,13,07,06,22.40
2019,06,13,07,07,22.40
2019,06,13,07,08,22.40
2019,06,13,07,09,22.30
2019,06,13,07,10,22.30
2019,06,13,07,11,22.20
2019,06,13,07,12,22.20
2019,06,13,07,13,22.20
2019,06,13,07,14,22.20
2019,06,13,07,15,22.20
2019,06,13,07,16,22.20
2019,06,13,07,17,22.20
2019,06,13,07,18,22.20
2019,06,13,07,19,22.30
2019,06,13,07,20,22.30
2019,06,13,07,21,22.30
2019,06,13,07,22,22.30
2019,06,13,07,23,22.30
2019,06,13,07,24,22.30
2019,06,13,07,25,22.30
2019,06,13,07,26,22.30
2019,06,13,07,27,22.30
2019,06,13,07,28,22.30
2019,06,13,07,29,22.30
2019,06,13,07,30,22.30
2019,06,13,07,31,22.40
2019,06,13,07,32,22.40
2019,06,13,07,33,22.50
2019,06,13,07,34,22.50
2019,06,13,07,35,22.60
2019,06,13,07,36,22.60
2019,06,13,07,37,22.60
2019,06,13,07,38,22.60
2019,06,13,07,39,22.60
2019,06,13,07,40,22.70
2019,06,13,07,41,22.70
2019,06,13,07,42,22.70
2019,06,13,07,43,22.70
2019,06,13,07,44,22.70
2019,06,13,07,45,22.80
2019,06,13,07,46,22.80
2019,06,13,07,47,22.80
2019,06,13,07,48,22.90
2019,06,13,07,49,22.90
2019,06,13,07,50,22.90
2019,06,13,07,51,22.80
2019,06,13,07,52,22.80
2019,06,13,07,53,22.90
2019,06,13,07,54,22.90
2019,06,13,07,55,22.90
2019,06,13,07,56,22.90
2019,06,13,07,57,23.00
2019,06,13,07,58,23.00
2019,06,13,07,59,23.10
2019,06,13,08,00,23.20
2019,06,13,08,01,23.20
2019,06,13,08,02,23.30
2019,06,13,08,03,23.30
2019,06,13,08,04,23.30
2019,06,13,08,05,23.40
2019,06,13,08,06,23.40
2019,06,13,08,07,23.40
2019,06,13,08,08,23.40
2019,06,13,08,09,23.40
2019,06,13,08,10,23.40
2019,06,13,08,11,23.50
2019,06,13,08,12,23.50
2019,06,13,08,13,23.50
2019,06,13,08,14,23.50
2019,06,13,08,15,23.50
2019,06,13,08,16,23.50
2019,06,13,08,17,23.40
2019,06,13,08,18,23.40
2019,06,13,08,19,23.30
2019,06,13,08,20,23.30
2019,06,13,08,21,23.30
2019,06,13,08,22,23.30
2019,06,13,08,23,23.30
2019,06,13,08,24,23.20
2019,06,13,08,25,23.20
2019,06,13,08,26,23.20
2019,06,13,08,27,23.20
2019,06,13,08,28,23.10
2019,06,13,08,29,23.10
2019,06,13,08,30,23.10
2019,06,13,08,31,23.10
2019,06,13,08,32,23.10
2019,06,13,08,33,23.00
2019,06,13,08,34,23.00
2019,06,13,08,35,23.10
2019,06,13,08,36,23.10
2019,06,13,08,37,23.10
2019,06,13,08,38,23.20
2019,06,13,08,39,23.20
2019,06,13,08,40,23.20
2019,06,13,08,41,23.20
2019,06,13,08,42,23.30
2019,06,13,08,43,23.30
2019,06,13,08,44,23.30
2019,06,13,08,45,23.40
2019,06,13,08,46,23.40
2019,06,13,08,47,23.50
2019,06,13,08,48,23.50
2019,06,13,08,49,23.50
2019,06,13,08,50,23.60
2019,06,13,08,51,23.60
2019,06,13,08,52,23.50
2019,06,13,08,53,23.50
2019,06,13,08,54,23.40
2019,06,13,08,55,23.40
2019,06,13,08,56,23.30
2019,06,13,08,57,23.30
2019,06,13,08,58,23.20
2019,06,13,08,59,23.10
2019,06,13,09,00,23.00
2019,06,13,09,01,22.90
2019,06,13,09,02,22.80
2019,06,13,09,03,22.90
2019,06,13,09,04,22.90
2019,06,13,09,05,22.90
2019,06,13,09,06,22.90
2019,06,13,09,07,23.00
2019,06,13,09,08,23.00
2019,06,13,09,09,23.10
2019,06,13,09,10,23.10
2019,06,13,09,11,23.20
2019,06,13,09,12,23.20
2019,06,13,09,13,23.20
2019,06,13,09,14,23.20
2019,06,13,09,15,23.20
2019,06,13,09,16,23.10
2019,06,13,09,17,23.10
2019,06,13,09,18,23.10
2019,06,13,09,19,23.00
2019,06,13,09,20,23.00
2019,06,13,09,21,23.00
2019,06,13,09,22,23.10
2019,06,13,09,23,23.10
2019,06,13,09,24,23.10
2019,06,13,09,25,23.10
2019,06,13,09,26,23.10
2019,06,13,09,27,23.20
2019,06,13,09,28,23.30
2019,06,13,09,29,23.30
2019,06,13,09,30,23.40
2019,06,13,09,31,23.40
2019,06,13,09,32,23.40
2019,06,13,09,33,23.50
2019,06,13,09,34,23.60
2019,06,13,09,35,23.60
2019,06,13,09,36,23.70
2019,06,13,09,37,23.80
2019,06,13,09,38,23.70
2019,06,13,09,39,23.60
2019,06,13,09,40,23.50
2019,06,13,09,41,23.40
2019,06,13,09,42,23.20
2019,06,13,09,43,23.10
2019,06,13,09,44,23.10
2019,06,13,09,45,23.10
2019,06,13,09,46,23.10
2019,06,13,09,47,23.10
2019,06,13,09,48,23.10
2019,06,13,09,49,23.10
2019,06,13,09,50,23.00
2019,06,13,09,51,22.90
2019,06,13,09,52,22.90
2019,06,13,09,53,22.90
2019,06,13,09,54,22.90
2019,06,13,09,55,23.00
2019,06,13,09,56,23.00
2019,06,13,09,57,23.10
2019,06,13,09,58,23.10
2019,06,13,09,59,23.10
2019,06,13,10,00,23.20
2019,06,13,10,01,23.30
2019,06,13,10,02,23.30
2019,06,13,10,03,23.20
2019,06,13,10,04,23.20
2019,06,13,10,05,23.10
2019,06,13,10,06,23.20
2019,06,13,10,07,23.20
2019,06,13,10,08,23.20
2019,06,13,10,09,23.30
2019,06,13,10,10,23.40
2019,06,13,10,11,23.40
2019,06,13,10,12,23.30
2019,06,13,10,13,23.20
2019,06,13,10,14,23.10
2019,06,13,10,15,23.00
2019,06,13,10,16,22.90
2019,06,13,10,17,22.80
2019,06,13,10,18,22.80
2019,06,13,10,19,22.80
2019,06,13,10,20,22.80
2019,06,13,10,21,22.70
2019,06,13,10,22,22.70
2019,06,13,10,23,22.70
2019,06,13,10,24,22.70
2019,06,13,10,25,22.60
2019,06,13,10,26,22.50
2019,06,13,10,27,22.50
2019,06,13,10,28,22.50
2019,06,13,10,29,22.50
2019,06,13,10,30,22.60
2019,06,13,10,31,22.80
2019,06,13,10,32,22.90
2019,06,13,10,33,23.00
2019,06,13,10,34,23.10
2019,06,13,10,35,23.10
2019,06,13,10,36,23.00
2019,06,13,10,37,22.90
2019,06,13,10,38,22.90
2019,06,13,10,39,23.00
2019,06,13,10,40,23.00
2019,06,13,10,41,22.90
2019,06,13,10,42,22.80
2019,06,13,10,43,22.70
2019,06,13,10,44,22.70
2019,06,13,10,45,22.70
2019,06,13,10,46,22.60
2019,06,13,10,47,22.50
2019,06,13,10,48,22.50
2019,06,13,10,49,22.40
2019,06,13,10,50,22.30
2019,06,13,10,51,22.30
2019,06,13,10,52,22.30
2019,06,13,10,53,22.30
2019,06,13,10,54,22.40
2019,06,13,10,55,22.40
2019,06,13,10,56,22.30
2019,06,13,10,57,22.20
2019,06,13,10,58,22.20
2019,06,13,10,59,22.20
2019,06,13,11,00,22.40
2019,06,13,11,01,22.60
2019,06,13,11,02,22.70
2019,06,13,11,03,22.80
2019,06,13,11,04,22.80
2019,06,13,11,05,22.80
2019,06,13,11,06,22.80
2019,06,13,11,07,22.70
2019,06,13,11,08,22.60
2019,06,13,11,09,22.50
2019,06,13,11,10,22.40
2019,06,13,11,11,22.40
2019,06,13,11,12,22.30
2019,06,13,11,13,22.40
2019,06,13,11,14,22.50
2019,06,13,11,15,22.60
2019,06,13,11,16,22.50
2019,06,13,11,17,22.50
2019,06,13,11,18,22.40
2019,06,13,11,19,22.30
2019,06,13,11,20,22.40
2019,06,13,11,21,22.40
2019,06,13,11,22,22.40
2019,06,13,11,23,22.40
2019,06,13,11,24,22.40
2019,06,13,11,25,22.40
2019,06,13,11,26,22.30
2019,06,13,11,27,22.30
2019,06,13,11,28,22.30
2019,06,13,11,29,22.30
2019,06,13,11,30,22.30
2019,06,13,11,31,22.30
2019,06,13,11,32,22.30
2019,06,13,11,33,22.30
2019,06,13,11,34,22.30
2019,06,13,11,35,22.30
2019,06,13,11,36,22.30
2019,06,13,11,37,22.20
2019,06,13,11,38,22.20
2019,06,13,11,39,22.10
2019,06,13,11,40,22.00
2019,06,13,11,41,22.00
2019,06,13,11,42,22.10
2019,06,13,11,43,22.10
2019,06,13,11,44,22.10
2019,06,13,11,45,22.10
2019,06,13,11,46,22.10
2019,06,13,11,47,22.10
2019,06,13,11,48,22.10
2019,06,13,11,49,22.10
2019,06,13,11,50,22.10
2019,06,13,11,51,22.20
2019,06,13,11,52,22.20
2019,06,13,11,53,22.20
2019,06,13,11,54,22.20
2019,06,13,11,55,22.20
2019,06,13,11,56,22.30
2019,06,13,11,57,22.40
2019,06,13,11,58,22.40
2019,06,13,11,59,22.40
2019,06,13,12,00,22.40
2019,06,13,12,01,22.40
2019,06,13,12,02,22.50
2019,06,13,12,03,22.50
2019,06,13,12,04,22.40
2019,06,13,12,05,22.50
2019,06,13,12,06,22.50
2019,06,13,12,07,22.50
2019,06,13,12,08,22.60
2019,06,13,12,09,22.50
2019,06,13,12,10,22.50
2019,06,13,12,11,22.40
2019,06,13,12,12,22.30
2019,06,13,12,13,22.30
2019,06,13,12,14,22.40
2019,06,13,12,15,22.50
2019,06,13,12,16,22.60
2019,06,13,12,17,22.70
2019,06,13,12,18,22.80
2019,06,13,12,19,22.80
2019,06,13,12,20,22.80
2019,06,13,12,21,22.80
2019,06,13,12,22,22.80
2019,06,13,12,23,22.70
2019,06,13,12,24,22.70
2019,06,13,12,25,22.70
2019,06,13,12,26,22.70
2019,06,13,12,27,22.80
2019,06,13,12,28,22.80
2019,06,13,12,29,22.80
2019,06,13,12,30,22.70
2019,06,13,12,31,22.70
2019,06,13,12,32,22.80
2019,06,13,12,33,22.80
2019,06,13,12,34,22.80
2019,06,13,12,35,22.80
2019,06,13,12,36,22.90
2019,06,13,12,37,22.90
2019,06,13,12,38,22.90
2019,06,13,12,39,22.90
2019,06,13,12,40,22.90
2019,06,13,12,41,22.90
2019,06,13,12,42,22.90
2019,06,13,12,43,22.80
2019,06,13,12,44,22.70
2019,06,13,12,45,22.70
2019,06,13,12,46,22.80
2019,06,13,12,47,22.70
2019,06,13,12,48,22.70
2019,06,13,12,49,22.70
2019,06,13,12,50,22.70
2019,06,13,12,51,22.80
2019,06,13,12,52,22.80
2019,06,13,12,53,22.80
2019,06,13,12,54,22.80
2019,06,13,12,55,22.70
2019,06,13,12,56,22.60
2019,06,13,12,57,22.50
2019,06,13,12,58,22.40
2019,06,13,12,59,22.20
2019,06,13,13,00,22.10
2019,06,13,13,01,22.10
2019,06,13,13,02,22.10
2019,06,13,13,03,22.30
2019,06,13,13,04,22.40
2019,06,13,13,05,22.50
2019,06,13,13,06,22.50
2019,06,13,13,07,22.50
2019,06,13,13,08,22.40
2019,06,13,13,09,22.30
2019,06,13,13,10,22.20
2019,06,13,13,11,22.10
2019,06,13,13,12,22.10
2019,06,13,13,13,22.10
2019,06,13,13,14,22.00
2019,06,13,13,15,21.90
2019,06,13,13,16,21.90
2019,06,13,13,17,21.90
2019,06,13,13,18,21.90
2019,06,13,13,19,22.00
2019,06,13,13,20,22.10
2019,06,13,13,21,22.20
2019,06,13,13,22,22.10
2019,06,13,13,23,22.10
2019,06,13,13,24,22.00
2019,06,13,13,25,22.00
2019,06,13,13,26,22.00
2019,06,13,13,27,22.00
2019,06,13,13,28,22.00
2019,06,13,13,29,22.10
2019,06,13,13,30,22.10
2019,06,13,13,31,22.10
2019,06,13,13,32,22.20
2019,06,13,13,33,22.10
2019,06,13,13,34,22.00
2019,06,13,13,35,21.90
2019,06,13,13,36,21.90
2019,06,13,13,37,21.90
2019,06,13,13,38,21.90
2019,06,13,13,39,21.90
2019,06,13,13,40,21.80
2019,06,13,13,41,21.70
2019,06,13,13,42,21.70
2019,06,13,13,43,21.70
2019,06,13,13,44,21.70
2019,06,13,13,45,21.70
2019,06,13,13,46,21.70
2019,06,13,13,47,21.70
2019,06,13,13,48,21.70
2019,06,13,13,49,21.70
2019,06,13,13,50,21.80
2019,06,13,13,51,21.80
2019,06,13,13,52,21.90
2019,06,13,13,53,22.10
2019,06,13,13,54,22.20
2019,06,13,13,55,22.20
2019,06,13,13,56,22.10
2019,06,13,13,57,22.10
2019,06,13,13,58,22.00
2019,06,13,13,59,22.00
2019,06,13,14,00,22.00
2019,06,13,14,01,22.10
2019,06,13,14,02,22.00
2019,06,13,14,03,22.10
2019,06,13,14,04,22.20
2019,06,13,14,05,22.30
2019,06,13,14,06,22.20
2019,06,13,14,07,22.30
2019,06,13,14,08,22.30
2019,06,13,14,09,22.30
2019,06,13,14,10,22.40
2019,06,13,14,11,22.40
2019,06,13,14,12,22.40
2019,06,13,14,13,22.40
2019,06,13,14,14,22.30
2019,06,13,14,15,22.20
2019,06,13,14,16,22.10
2019,06,13,14,17,22.10
2019,06,13,14,18,22.20
2019,06,13,14,19,22.10
2019,06,13,14,20,22.10
2019,06,13,14,21,22.10
2019,06,13,14,22,22.20
2019,06,13,14,23,22.40
2019,06,13,14,24,22.50
2019,06,13,14,25,22.60
2019,06,13,14,26,22.60
2019,06,13,14,27,22.40
2019,06,13,14,28,22.30
2019,06,13,14,29,22.30
2019,06,13,14,30,22.30
2019,06,13,14,31,22.20
2019,06,13,14,32,22.10
2019,06,13,14,33,22.10
2019,06,13,14,34,22.20
2019,06,13,14,35,22.20
2019,06,13,14,36,22.30
2019,06,13,14,37,22.50
2019,06,13,14,38,22.60
2019,06,13,14,39,22.70
2019,06,13,14,40,22.70
2019,06,13,14,41,22.70
2019,06,13,14,42,22.70
2019,06,13,14,43,22.60
2019,06,13,14,44,22.60
2019,06,13,14,45,22.40
2019,06,13,14,46,22.30
2019,06,13,14,47,22.30
2019,06,13,14,48,22.30
2019,06,13,14,49,22.20
2019,06,13,14,50,22.20
2019,06,13,14,51,22.30
2019,06,13,14,52,22.20
2019,06,13,14,53,22.20
2019,06,13,14,54,22.10
2019,06,13,14,55,22.10
2019,06,13,14,56,22.10
2019,06,13,14,57,22.10
2019,06,13,14,58,22.10
2019,06,13,14,59,22.10
2019,06,13,15,00,22.10
2019,06,13,15,01,22.00
2019,06,13,15,02,21.90
2019,06,13,15,03,21.80
2019,06,13,15,04,21.90
2019,06,13,15,05,22.00
2019,06,13,15,06,22.10
2019,06,13,15,07,22.30
2019,06,13,15,08,22.40
2019,06,13,15,09,22.40
2019,06,13,15,10,22.50
2019,06,13,15,11,22.50
2019,06,13,15,12,22.60
2019,06,13,15,13,22.70
2019,06,13,15,14,22.80
2019,06,13,15,15,22.80
2019,06,13,15,16,22.70
2019,06,13,15,17,22.60
2019,06,13,15,18,22.50
2019,06,13,15,19,22.40
2019,06,13,15,20,22.30
2019,06,13,15,21,22.20
2019,06,13,15,22,22.20
2019,06,13,15,23,22.20
2019,06,13,15,24,22.40
2019,06,13,15,25,22.50
2019,06,13,15,26,22.70
2019,06,13,15,27,22.80
2019,06,13,15,28,22.90
2019,06,13,15,29,22.90
2019,06,13,15,30,22.90
2019,06,13,15,31,22.90
2019,06,13,15,32,22.80
2019,06,13,15,33,22.80
2019,06,13,15,34,22.80
2019,06,13,15,35,22.90
2019,06,13,15,36,22.90
2019,06,13,15,37,22.90
2019,06,13,15,38,22.80
2019,06,13,15,39,22.80
2019,06,13,15,40,22.70
2019,06,13,15,41,22.50
2019,06,13,15,42,22.40
2019,06,13,15,43,22.30
2019,06,13,15,44,22.20
2019,06,13,15,45,22.20
2019,06,13,15,46,22.10
2019,06,13,15,47,22.20
2019,06,13,15,48,22.20
2019,06,13,15,49,22.30
2019,06,13,15,50,22.30
2019,06,13,15,51,22.40
2019,06,13,15,52,22.50
2019,06,13,15,53,22.60
2019,06,13,15,54,22.70
2019,06,13,15,55,22.80
2019,06,13,15,56,22.90
2019,06,13,15,57,23.00
2019,06,13,15,58,23.20
2019,06,13,15,59,23.30
2019,06,13,16,00,23.40
2019,06,13,16,01,23.50
2019,06,13,16,02,23.60
2019,06,13,16,03,23.70
2019,06,13,16,04,23.80
2019,06,13,16,05,23.80
2019,06,13,16,06,23.80
2019,06,13,16,07,23.80
2019,06,13,16,08,23.70
2019,06,13,16,09,23.70
2019,06,13,16,10,23.70
2019,06,13,16,11,23.60
2019,06,13,16,12,23.60
2019,06,13,16,13,23.60
2019,06,13,16,14,23.60
2019,06,13,16,15,23.60
2019,06,13,16,16,23.50
2019,06,13,16,17,23.40
2019,06,13,16,18,23.40
2019,06,13,16,19,23.40
2019,06,13,16,20,23.40
2019,06,13,16,21,23.40
2019,06,13,16,22,23.40
2019,06,13,16,23,23.40
2019,06,13,16,24,23.50
2019,06,13,16,25,23.60
2019,06,13,16,26,23.70
2019,06,13,16,27,23.70
2019,06,13,16,28,23.80
2019,06,13,16,29,23.80
2019,06,13,16,30,23.80
2019,06,13,16,31,23.80
2019,06,13,16,32,23.80
2019,06,13,16,33,23.80
2019,06,13,16,34,23.90
2019,06,13,16,35,24.00
2019,06,13,16,36,24.10
2019,06,13,16,37,24.20
2019,06,13,16,38,24.30
2019,06,13,16,39,24.40
2019,06,13,16,40,24.60
2019,06,13,16,41,24.70
2019,06,13,16,42,24.70
2019,06,13,16,43,24.70
2019,06,13,16,44,24.70
2019,06,13,16,45,24.70
2019,06,13,16,46,24.70
2019,06,13,16,47,24.60
2019,06,13,16,48,24.50
2019,06,13,16,49,24.40
2019,06,13,16,50,24.20
2019,06,13,16,51,24.10
2019,06,13,16,52,23.90
2019,06,13,16,53,23.90
2019,06,13,16,54,23.90
2019,06,13,16,55,23.90
2019,06,13,16,56,24.00
2019,06,13,16,57,24.10
2019,06,13,16,58,24.00
2019,06,13,16,59,23.90
2019,06,13,17,00,23.80
2019,06,13,17,01,23.80
2019,06,13,17,02,23.90
2019,06,13,17,03,23.90
2019,06,13,17,04,24.00
2019,06,13,17,05,24.10
2019,06,13,17,06,24.20
2019,06,13,17,07,24.30
2019,06,13,17,08,24.30
2019,06,13,17,09,24.30
2019,06,13,17,10,24.20
2019,06,13,17,11,24.20
2019,06,13,17,12,24.20
2019,06,13,17,13,24.20
2019,06,13,17,14,24.10
2019,06,13,17,15,24.10
2019,06,13,17,16,24.20
2019,06,13,17,17,24.30
2019,06,13,17,18,24.40
2019,06,13,17,19,24.50